FENGYUN 1C DEB, 30273

Orbit data source: Space-Track

FENGYUN 1C DEB, 30273 is space debris in SSO originally from a launch on Mon, 10 May 1999 UTC launched from the Taiyaun Space Center, China (TSC). Fengyun 1C debris stems from the Chinese weather satellite Fengyun-1C, which was intentionally destroyed by a Chinese anti-satellite missile in 2007. This event dramatically increased the amount of space debris, with thousands of trackable fragments posing hazards to satellites and human spaceflight. The Fengyun 1C debris cloud has become a focal point in discussions about space sustainability and the need for international regulations to prevent the creation of new debris.

Loading next visibility...
Identifier
30273, 1999-025YJ
Orbit
SSO
Country
Flag of CNCN / PRC
Related business
Manufacturer
Unknown
Mission
Spacecraft
Bus & Motor
Unknown
Mass
Unknown
Launch date (UTC)
1999-05-10 (26 years ago)
Launch vehicle
Unknown
Launch site
Taiyaun Space Center, China (TSC)
Object type
Payload
Rocket body
Debris
Shape & HBR
Unknown shape, 0.2 m
Radar Cross Section
Small (<0.1 m²)

Expand to show TLE details & history
Last TLE update: 8 hours ago

TLE from 8 hours ago
0 FENGYUN 1C DEB
1 30273U 99025YJ  25301.54400844  .00000938  00000-0  62614-3 0  9992
2 30273  98.8438 317.4308 0061819  17.0937 147.1945 14.02544004958956
Epoch: 2025-10-28T13:03Z
TLE epoch observation values (Epoch: 2025-10-28T13:03:22.329Z)
Latitude
15.12018°
Longitude
-93.14536°
Altitude
925.013 km
Speed
7.371 km/s
True Right ascension
09h 19m 18s
True Declination
15° 02' 09"
Sunlit
Object was in daylight at epoch
Visualization orbit readout
Latitude
Unknown
Longitude
Unknown
Altitude
Unknown
Speed
Unknown
Apparent Right ascension
Unknown
Apparent Declination
Unknown
Sunlit
N/A
Visualization observer readout
Local Sidereal Time
16:59:40
Azimuth
Unknown
Elevation
Unknown
Doppler factor
Unknown
Orbital elements
Apogee altitude
927.07 km
Perigee altitude
837.305 km
Semi-major axis
7,260.324 km
Eccentricity
0.00618
Inclination
98.8438°
RAAN
317.4308°
Arg. of periapsis
17.0937°
True anomaly
147.57582°
Mean anomaly
147.1945°
Eccentric anomaly
147.38541°
Mean motion
3.5084 °/min
Orbital period
102.61 mins
BSTAR
0.00062614
Loading maneuver chart data...
Computing Atmospheric mass density...

Documentation

Showing up to 5 results
|